Location: Newark
(49.8969°N, 3.3422°E)
Time: 15:25:59
(UTC+00:00)

Envisat - Pass Details

Date: 14 December 2019
Orbit: 764 x 766 km, 98.1° (Epoch: 18 January)

Event Time Altitude Azimuth Distance (km) Brightness Sun altitude
Rises 18:28:19 0° 193° (SSW) 3,222 6.5 -25.0°
Reaches altitude 10° 18:30:52 10° 204° (SSW) 2,300 5.8 -25.4°
Maximum altitude 18:35:20 31° 266° (W) 1,338 4.8 -26.1°
Drops below altitude 10° 18:39:49 10° 328° (NNW) 2,315 5.8 -26.8°
Sets 18:42:24 0° 339° (NNW) 3,246 6.5 -27.2°
